Milwaukee, WI

9:56 PM CST on February 10, 2016 (GMT -0600)
Gen Mitchell International

Weather History for KMKE - October, 2010

Change the Weather History Date:

Thursday, October 7, 2010

  Actual Average Record
Temperature  
Mean Temperature 63 °F 54 °F  
Max Temperature 74 °F 63 °F 85 °F (1993)
Min Temperature 52 °F 46 °F 25 °F (1964)
Degree Days  
Heating Degree Days 2 11  
Month to date heating degree days 71 70  
Since 1 July heating degree days 189 222  
Cooling Degree Days 0 0  
Month to date cooling degree days 0 3  
Year to date cooling degree days 941 637  
Growing Degree Days 13 (Base 50)    
Moisture  
Dew Point 40 °F    
Average Humidity 49    
Maximum Humidity 66    
Minimum Humidity 31    
Precipitation  
Precipitation 0.00 in 0.08 in 1.80 in (1903)
Month to date precipitation 0.04 0.62  
Year to date precipitation 31.01 27.98  
Snow  
Snow 0.00 in 0.00 in 0.20 in (2000)
Month to date snowfall 0.0 0.0  
Since 1 July snowfall 0.0 0.0  
Since 1 September snowfall 0.0 0.0  
Snow Depth 0.00 in    
Sea Level Pressure  
Sea Level Pressure 30.07 in    
Wind  
Wind Speed 5 mph (NW)    
Max Wind Speed 13 mph    
Max Gust Speed 16 mph    
Visibility 10 miles    
Events      
T = Trace of Precipitation, MM = Missing Value Source: NWS Daily Summary

Daily Weather History Graph

Daily Weather History Graph

Search for Another Location

Airport or City:

Trip Planner

Search our weather history database for the weather conditions in past years. The results will help you decide how hot, cold, wet, or windy it might be!

Date:

Astronomy

Oct. 07, 2010 Rise Set
Actual Time 6:55 AM CDT 6:22 PM CDT
Civil Twilight 6:27 AM CDT 6:50 PM CDT
Nautical Twilight 5:54 AM CDT 7:23 PM CDT
Astronomical Twilight 5:21 AM CDT 7:56 PM CDT
Moon 6:48 AM CDT (10/7) 5:56 PM CDT (10/7)
Length of Visible Light 12h 23m
Length of Day
11h 26m
Waning Crescent, 0% of the Moon is Illuminated
Oct 7
Waning Crescent
Oct 7
New
Oct 14
First Quarter
Oct 22
Full
Oct 30
Last Quarter

Hourly Weather History & Observations

Time (CDT) Temp. Dew Point Humidity Pressure Visibility Wind Dir Wind Speed Gust Speed Precip Events Conditions
12:52 AM 60.1 °F 42.1 °F 51% 30.00 in 10.0 mi North 10.4 mph - N/A   Clear
1:52 AM 57.9 °F 39.9 °F 51% 30.01 in 10.0 mi NNW 6.9 mph - N/A   Clear
2:52 AM 55.9 °F 39.0 °F 53% 30.02 in 10.0 mi NW 6.9 mph - N/A   Clear
3:52 AM 55.0 °F 37.9 °F 53% 30.03 in 10.0 mi WNW 4.6 mph - N/A   Clear
4:52 AM 53.1 °F 37.0 °F 55% 30.05 in 10.0 mi WNW 6.9 mph - N/A   Clear
5:52 AM 53.1 °F 37.0 °F 55% 30.06 in 10.0 mi WNW 6.9 mph - N/A   Clear
6:52 AM 53.1 °F 37.9 °F 57% 30.06 in 10.0 mi WNW 5.8 mph - N/A   Clear
7:52 AM 54.0 °F 37.9 °F 55% 30.08 in 10.0 mi WNW 6.9 mph - N/A   Clear
8:52 AM 57.9 °F 37.9 °F 47% 30.10 in 10.0 mi NW 10.4 mph - N/A   Clear
9:52 AM 61.0 °F 37.0 °F 41% 30.11 in 10.0 mi WNW 9.2 mph - N/A   Clear
10:52 AM 64.9 °F 37.0 °F 36% 30.11 in 10.0 mi WNW 6.9 mph - N/A   Clear
11:52 AM 69.1 °F 37.9 °F 32% 30.11 in 10.0 mi WNW 4.6 mph - N/A   Clear
12:52 PM 71.1 °F 41.0 °F 34% 30.10 in 10.0 mi Calm Calm - N/A   Clear
1:52 PM 69.1 °F 39.0 °F 33% 30.08 in 10.0 mi East 6.9 mph - N/A   Clear
2:52 PM 73.0 °F 39.9 °F 30% 30.06 in 10.0 mi North 11.5 mph 16.1 mph N/A   Clear
3:52 PM 68.0 °F 39.9 °F 36% 30.06 in 10.0 mi ESE 9.2 mph - N/A   Clear
4:52 PM 66.0 °F 41.0 °F 40% 30.06 in 10.0 mi ESE 6.9 mph - N/A   Clear
5:52 PM 62.1 °F 43.0 °F 50% 30.06 in 10.0 mi SE 5.8 mph - N/A   Clear
6:52 PM 62.1 °F 43.0 °F 50% 30.06 in 10.0 mi Calm Calm - N/A   Clear
7:52 PM 59.0 °F 42.1 °F 53% 30.07 in 10.0 mi SSW 5.8 mph - N/A   Clear
8:52 PM 55.9 °F 42.1 °F 60% 30.08 in 10.0 mi Calm Calm - N/A   Partly Cloudy
9:52 PM 55.0 °F 43.0 °F 64% 30.07 in 10.0 mi Calm Calm - N/A   Clear
10:52 PM 54.0 °F 43.0 °F 66% 30.07 in 10.0 mi Calm Calm - N/A   Clear
11:52 PM 54.0 °F 43.0 °F 66% 30.06 in 10.0 mi Calm Calm - N/A   Clear